This is the latest recevied weather packets stored in our database for station/object KE8GJZ-2. If no packets are shown the sender has not sent any weather packets the latest 10 day(s).
| Time | Temp. | Humidity | Pressure | Rain* | Wind** | Luminosity | Snow |
|---|---|---|---|---|---|---|---|
| 1777741101 | 8.33° C | 51% | 1018.9 hPa | 0 mm | - | 215 W/m² | - |
| 1777740798 | 7.78° C | 54% | 1019.2 hPa | 0 mm | - | 772 W/m² | - |
| 1777740495 | 8.33° C | 51% | 1018.9 hPa | 0 mm | - | 330 W/m² | - |
| 1777740192 | 7.78° C | 50% | 1019.2 hPa | 0 mm | - | 819 W/m² | - |
| 1777739888 | 7.78° C | 54% | 1019 hPa | 0 mm | - | 182 W/m² | - |
| 1777739584 | 7.78° C | 53% | 1019.4 hPa | 0 mm | - | 882 W/m² | - |
| 1777739282 | 8.33° C | 56% | 1019.2 hPa | 0 mm | - | 837 W/m² | - |
| 1777738979 | 7.78° C | 60% | 1019.2 hPa | 0 mm | - | 208 W/m² | - |
| 1777738675 | 7.78° C | 53% | 1019.1 hPa | 0 mm | - | 853 W/m² | - |
| 1777738371 | 7.78° C | 56% | 1019.6 hPa | 0 mm | - | 802 W/m² | - |
| 1777738069 | 7.22° C | 61% | 1019.6 hPa | 0 mm | - | 162 W/m² | - |
| 1777737763 | 7.78° C | 53% | 1019.6 hPa | 0 mm | - | 197 W/m² | - |
| 1777737461 | 7.78° C | 58% | 1019.7 hPa | 0 mm | - | 861 W/m² | - |
| 1777737158 | 7.22° C | 56% | 1019.6 hPa | 0 mm | - | 825 W/m² | - |
| 1777736854 | 6.67° C | 59% | 1019.7 hPa | 0 mm | - | 184 W/m² | - |
| 1777736241 | 7.78° C | 56% | 1019.7 hPa | 0 mm | - | 172 W/m² | - |
| 1777735938 | 7.22° C | 55% | 1019.7 hPa | 0 mm | - | 596 W/m² | - |
| 1777735635 | 7.22° C | 57% | 1019.8 hPa | 0 mm | - | 843 W/m² | - |
| 1777735332 | 7.22° C | 58% | 1019.8 hPa | 0 mm | - | 178 W/m² | - |
| 1777735030 | 7.22° C | 56% | 1019.7 hPa | 0 mm | - | 661 W/m² | - |
| 1777734727 | 6.67° C | 59% | 1019.7 hPa | 0 mm | - | 758 W/m² | - |
| 1777734424 | 6.67° C | 61% | 1019.8 hPa | 0 mm | - | 822 W/m² | - |
| 1777734121 | 6.67° C | 60% | 1019.8 hPa | 0 mm | - | 190 W/m² | - |
| 1777733817 | 6.67° C | 62% | 1019.7 hPa | 0 mm | - | 135 W/m² | - |
| 1777733514 | 6.67° C | 65% | 1019.5 hPa | 0 mm | - | 138 W/m² | - |
* Rain latest hour (hover to see other rain measurements)
** Current wind speed in m/s (hover to see current wind gust speed)